Flag for United Kingdom Weather past 2 weeks in Chester, England, United Kingdom

Now
42 °F

Fog.


Feels Like: 39 °F
Forecast: 44 / 53 °F
Wind: 5 mph from Southwest

Location: Hawarden


UV Index: 0 (Low)

Visibility: 4 mi


Pressure: 30.08 "Hg

Humidity: 100%

Dew point: 42 °F

Location of ChesterLocation

Historic Weather in Chester

°F

Chester temperature yesterday

Maximum temperature yesterday: 59 °F (at 3:00 PM)
Minimum temperature yesterday: 44 °F (at 6:00 AM)
Average temperature yesterday: 52 °F

Past Weeks' High & Low Weather Summary

 TemperatureHumidityPressure
High68 °F (Apr 21, 5:00 PM)100% (Apr 21, 6:00 AM)30.44 "Hg (Apr 21, 6:00 AM)
Low33 °F (Apr 19, 6:00 AM)39% (Apr 18, 5:00 PM)29.71 "Hg (Apr 20, 7:00 PM)
Average50 °F75%30.10 "Hg
* Reported Apr 9 3:00 AM — Apr 24 3:00 AM, Chester, Weather by CustomWeather, © 2014

Note: Actual official high and low records may vary slightly from our data, if they occured in-between our weather recording intervals... More about our weather records

Advertising

Historic Weather Conditions — Data for Previous 24 hours

 ConditionsComfort  
Time TempWeatherWind HumidityBarometerVisibility
3:00 AM
Apr 24
42 °FFog.5 mph100%30.08 "Hg4 mi
2:00 AM44 °FFog.6 mph99%30.07 "Hg5 mi
1:00 AM46 °FFog.3 mph97%30.07 "Hg4 mi
12:00 AM50 °FCool.5 mph96%30.06 "Hg11 mi
11:00 PM
Apr 23
50 °FCool.7 mph95%30.05 "Hg12 mi
10:00 PM50 °FCool.5 mph95%30.04 "Hg18 mi
9:00 PM51 °FCool.3 mph95%30.03 "Hg13 mi
8:00 PM52 °FCool.7 mph91%30.02 "Hg19 mi
7:00 PM54 °FRain showers. Cloudy.5 mph89%29.99 "Hg12 mi
6:00 PM55 °FCool.2 mph81%29.98 "Hg28 mi
5:00 PM54 °FLots of rain. Cloudy.12 mph85%29.97 "Hg6 mi
4:00 PM56 °FCool.13 mph94%29.96 "Hg11 mi
3:00 PM59 °FCool.10 mph76%29.95 "Hg16 mi
2:00 PM57 °FCool.13 mph80%29.95 "Hg12 mi
1:00 PM57 °FLight freezing rain. Cloudy.14 mph78%29.96 "Hg12 mi
12:00 PM55 °FRain showers. Cloudy.14 mph83%29.95 "Hg7 mi
11:00 AM55 °FCool.14 mph80%29.95 "Hg9 mi
10:00 AM53 °FCool.13 mph84%29.95 "Hg10 mi
9:00 AM52 °FCool.12 mph87%29.94 "Hg12 mi
8:00 AM51 °FCool.6 mph93%29.93 "Hg8 mi
7:00 AM46 °FCool.6 mph96%29.91 "Hg8 mi
6:00 AM44 °FQuite cool.2 mph93%29.91 "Hg10 mi
5:00 AM46 °FCool.9 mph95%29.90 "Hg7 mi
4:00 AM47 °FFog.7 mph95%29.90 "Hg6 mi
Weather by CustomWeather, © 2014

See weather overview